Regional Weather Roundup
Issued by NWS

Home | Current Version | Previous Version | Text Only | Print | Product List | Glossary On
Versions: 1 2 3 4 5 6 7 8 9 10 11 12 13 14 15 16 17 18 19 20 21 22 23 24 25 26 27 28 29 30 31 32 33 34 35 36 37 38 39 40 41 42 43 44 45 46 47 48 49
000
ASUS42 KKEY 011110
RWRKEY

FLORIDA REGIONAL WEATHER ROUNDUP FOR THE FLORIDA KEYS
NATIONAL WEATHER SERVICE KEY WEST FLORIDA
700 AM EDT SAT AUG 01 2015

...SOUTH FLORIDA AND THE KEYS...

CITY           SKY/WX    TMP DP  RH WIND       PRES   REMARKS
FORT MYERS     CLOUDY    75  74  96 CALM      29.97S
SW REGIONAL AP CLOUDY    76  73  91 SE5       29.98S
NAPLES         CLOUDY    79  69  71 SE8       29.96F
MIAMI          CLOUDY    78  70  76 CALM      29.99F
WEST KENDALL   MOCLDY    75  72  90 CALM      29.99F
HOMESTEAD      PTCLDY    75  72  89 E3        29.98F
MARATHON       PTCLDY    85  77  77 VRB5      29.98S HX  95
BOCA CHICA NAS MOCLDY    84  76  76 S9        29.98R HX  93
KEY WEST INTL  CLOUDY    85  76  74 S10       29.98S HX  94

...INTERNATIONAL WEATHER...

CITY           SKY/WX    TMP DP  RH WIND       PRES   REMARKS
NASSAU BAHAMAS MOCLDY    82  73  74 S7        30.03R
CANCUN MEXICO  PTCLDY    75  75 100 N2        29.97S
COZUMEL MEXICO CLEAR     72  72 100 CALM      29.96F

ADJACENT COASTAL WATERS...

STATION/POSITION TIME  SKY/WX   TEMP    WIND        PRES    WAVE
                                AIR SEA DIR/SP/G            HT/PER
                 (UTC)          (F)     (DEG/KT/KT) (MB)    (FT/S)
PULASKI SHOAL LI 1000            85     140/  9/ 10 1014.8F
SAND KEY         1050            85     160/ 11/ 13 1015.1R
SOMBRERO KEY     1100            85     140/ 10/ 11 1016.0R
LONG KEY         1100            85 88  140/ 11/ 12 1015.9F
MOLASSES REEF    1100            84 87  160/  8/  9 1015.4F
FOWEY ROCKS      NOT AVBL

$$


USA.gov is the U.S. government's official web portal to all federal, state and local government web resources and services.